| time (UTC) | temp C | wind direction | speed KPH | gust KPH | rain 1hr cm | rain 24hr cm | rain mn cm | humidity % | barometer mb |
| 20260506092315 | 30 | 185 | 3.2 | 6.4 | 0.00 | 0.00 | 0.00 | 77 | 1007.0 |
| 20260506091812 | 30 | 173 | 4.8 | 6.4 | 0.00 | 0.00 | 0.00 | 77 | 1007.1 |
| 20260506091309 | 30 | 310 | 1.6 | 3.2 | 0.00 | 0.00 | 0.00 | 76 | 1007.1 |
| 20260506090807 | 30 | 192 | 1.6 | 4.8 | 0.00 | 0.00 | 0.00 | 76 | 1006.9 |
| 20260506090304 | 30 | 179 | 3.2 | 6.4 | 0.00 | 0.00 | 0.00 | 76 | 1006.8 |
| 20260506085800 | 30 | 150 | 3.2 | 4.8 | 0.00 | 0.00 | 0.00 | 76 | 1006.8 |
| 20260506085257 | 30 | 296 | 0.0 | 4.8 | 0.00 | 0.00 | 0.00 | 75 | 1006.8 |
| 20260506084754 | 31 | 306 | 3.2 | 3.2 | 0.00 | 0.00 | 0.00 | 74 | 1007.0 |
| 20260506084250 | 31 | 250 | 1.6 | 9.7 | 0.00 | 0.00 | 0.00 | 73 | 1007.2 |
| 20260506083747 | 31 | 174 | 1.6 | 6.4 | 0.00 | 0.00 | 0.00 | 72 | 1006.8 |
| 20260506083245 | 30 | 199 | 9.7 | 11.3 | 0.00 | 0.00 | 0.00 | 73 | 1006.9 |
| 20260506082742 | 30 | 295 | 0.0 | 6.4 | 0.00 | 0.00 | 0.00 | 74 | 1006.9 |
| 20260506082237 | 30 | 249 | 3.2 | 9.7 | 0.00 | 0.00 | 0.00 | 74 | 1006.9 |
| 20260506081735 | 30 | 240 | 6.4 | 12.9 | 0.00 | 0.00 | 0.00 | 74 | 1007.1 |
| 20260506081232 | 31 | 198 | 6.4 | 14.5 | 0.00 | 0.00 | 0.00 | 73 | 1006.9 |
| 20260506080731 | 32 | 157 | 8.0 | 20.9 | 0.00 | 0.00 | 0.00 | 70 | 1006.7 |
| 20260506080227 | 32 | 161 | 14.5 | 22.5 | 0.00 | 0.00 | 0.00 | 67 | 1006.7 |
| 20260506073211 | 33 | 180 | 6.4 | 9.7 | 0.00 | 0.00 | 0.00 | 66 | 1006.6 |
| 20260506072707 | 33 | 157 | 3.2 | 11.3 | 0.00 | 0.00 | 0.00 | 67 | 1006.7 |
| 20260506072205 | 32 | 119 | 6.4 | 11.3 | 0.00 | 0.00 | 0.00 | 67 | 1006.7 |
| 20260506071702 | 32 | 97 | 6.4 | 12.9 | 0.00 | 0.00 | 0.00 | 67 | 1006.7 |
| 20260506071200 | 32 | 138 | 6.4 | 14.5 | 0.00 | 0.00 | 0.00 | 68 | 1006.8 |
| 20260506070657 | 32 | 94 | 6.4 | 12.9 | 0.00 | 0.00 | 0.00 | 68 | 1006.9 |
| 20260506070154 | 32 | 150 | 8.0 | 16.1 | 0.00 | 0.00 | 0.00 | 68 | 1006.7 |
| 20260506062131 | 34 | 344 | 0.0 | 4.8 | 0.00 | 0.00 | 0.00 | 60 | 1007.4 |
| 20260506061627 | 35 | 325 | 1.6 | 4.8 | 0.00 | 0.00 | 0.00 | 60 | 1007.3 |
| 20260506061125 | 34 | 2 | 9.7 | 11.3 | 0.00 | 0.00 | 0.00 | 61 | 1007.4 |
| 20260506060623 | 34 | 353 | 12.9 | 17.7 | 0.00 | 0.00 | 0.00 | 62 | 1007.7 |
| 20260506060120 | 35 | 321 | 6.4 | 12.9 | 0.00 | 0.00 | 0.00 | 61 | 1007.4 |
| 20260506051051 | 33 | 51 | 3.2 | 6.4 | 0.00 | 0.00 | 0.00 | 62 | 1008.8 |
| 20260506050549 | 33 | 1 | 12.9 | 16.1 | 0.00 | 0.00 | 0.00 | 62 | 1008.9 |
| 20260506045040 | 33 | 3 | 12.9 | 16.1 | 0.00 | 0.00 | 0.00 | 63 | 1009.2 |
| 20260506044538 | 33 | 114 | 4.8 | 11.3 | 0.00 | 0.00 | 0.00 | 64 | 1009.5 |
| 20260506044034 | 33 | 84 | 6.4 | 9.7 | 0.00 | 0.00 | 0.00 | 62 | 1009.5 |
| 20260506043531 | 33 | 16 | 4.8 | 14.5 | 0.00 | 0.00 | 0.00 | 63 | 1009.9 |
| 20260506043030 | 32 | 322 | 3.2 | 6.4 | 0.00 | 0.00 | 0.00 | 65 | 1009.6 |
| 20260506042529 | 33 | 59 | 9.7 | 12.9 | 0.00 | 0.00 | 0.00 | 65 | 1009.9 |
| 20260506042026 | 33 | 332 | 3.2 | 4.8 | 0.00 | 0.00 | 0.00 | 65 | 1009.9 |
| 20260506041525 | 33 | 40 | 6.4 | 9.7 | 0.00 | 0.00 | 0.00 | 65 | 1009.9 |
| 20260506041021 | 32 | 29 | 3.2 | 14.5 | 0.00 | 0.00 | 0.00 | 67 | 1010.0 |
| 20260506040519 | 32 | 55 | 12.9 | 14.5 | 0.00 | 0.00 | 0.00 | 68 | 1010.2 |
| 20260506040015 | 32 | 18 | 8.0 | 11.3 | 0.00 | 0.00 | 0.00 | 69 | 1010.2 |
| 20260506035512 | 32 | 9 | 1.6 | 12.9 | 0.00 | 0.00 | 0.00 | 68 | 1010.2 |
| 20260506035008 | 32 | 246 | 1.6 | 3.2 | 0.00 | 0.00 | 0.00 | 68 | 1010.3 |
| 20260506034506 | 32 | 26 | 8.0 | 11.3 | 0.00 | 0.00 | 0.00 | 70 | 1010.2 |
| 20260506034003 | 32 | 59 | 4.8 | 11.3 | 0.00 | 0.00 | 0.00 | 70 | 1010.3 |
| 20260506033500 | 32 | 117 | 3.2 | 12.9 | 0.00 | 0.00 | 0.00 | 70 | 1010.4 |
| 20260506032956 | 32 | 33 | 3.2 | 11.3 | 0.00 | 0.00 | 0.00 | 70 | 1010.4 |
| 20260506032454 | 32 | 105 | 4.8 | 11.3 | 0.00 | 0.00 | 0.00 | 71 | 1010.2 |
| 20260506031950 | 31 | 98 | 9.7 | 17.7 | 0.00 | 0.00 | 0.00 | 72 | 1010.4 |
| 20260506031448 | 31 | 53 | 6.4 | 12.9 | 0.00 | 0.00 | 0.00 | 73 | 1010.7 |
| 20260506030945 | 31 | 24 | 3.2 | 9.7 | 0.00 | 0.00 | 0.00 | 73 | 1010.5 |
| 20260506030443 | 30 | 119 | 4.8 | 11.3 | 0.00 | 0.00 | 0.00 | 74 | 1010.7 |
| 20260506025940 | 30 | 58 | 8.0 | 9.7 | 0.00 | 0.00 | 0.00 | 74 | 1010.7 |
| 20260506025437 | 30 | 60 | 3.2 | 6.4 | 0.00 | 0.00 | 0.00 | 74 | 1010.8 |
| 20260506024933 | 30 | 42 | 4.8 | 6.4 | 0.00 | 0.00 | 0.00 | 75 | 1010.7 |
| 20260506024430 | 30 | 54 | 3.2 | 9.7 | 0.00 | 0.00 | 0.00 | 75 | 1011.1 |
| 20260506023926 | 30 | 5 | 11.3 | 12.9 | 0.00 | 0.00 | 0.00 | 74 | 1010.9 |
| 20260506023423 | 31 | 72 | 1.6 | 9.7 | 0.00 | 0.00 | 0.00 | 74 | 1010.7 |
| 20260506022920 | 30 | 75 | 8.0 | 12.9 | 0.00 | 0.00 | 0.00 | 74 | 1010.7 |
| 20260506022418 | 30 | 30 | 4.8 | 11.3 | 0.00 | 0.00 | 0.00 | 76 | 1011.1 |
| 20260506021915 | 30 | 0 | 9.7 | 11.3 | 0.00 | 0.00 | 0.00 | 76 | 1010.8 |
| 20260506021413 | 30 | 2 | 6.4 | 12.9 | 0.00 | 0.00 | 0.00 | 77 | 1011.0 |
| 20260506020909 | 30 | 49 | 1.6 | 4.8 | 0.00 | 0.00 | 0.00 | 77 | 1010.9 |
| 20260506020407 | 30 | 38 | 9.7 | 11.3 | 0.00 | 0.00 | 0.00 | 76 | 1011.1 |
| 20260506015904 | 30 | 10 | 12.9 | 14.5 | 0.00 | 0.00 | 0.00 | 77 | 1010.8 |
| 20260506015402 | 30 | 66 | 3.2 | 6.4 | 0.00 | 0.00 | 0.00 | 77 | 1010.9 |
| 20260506014858 | 30 | 91 | 3.2 | 9.7 | 0.00 | 0.00 | 0.00 | 77 | 1010.8 |
| 20260506014355 | 30 | 73 | 8.0 | 14.5 | 0.00 | 0.00 | 0.00 | 78 | 1010.8 |
| 20260506013852 | 30 | 71 | 3.2 | 11.3 | 0.00 | 0.00 | 0.00 | 79 | 1010.7 |
| 20260506013350 | 29 | 20 | 3.2 | 4.8 | 0.00 | 0.00 | 0.00 | 80 | 1010.7 |
| 20260506012845 | 30 | 359 | 0.0 | 1.6 | 0.00 | 0.00 | 0.00 | 80 | 1010.5 |
| 20260506012343 | 30 | 17 | 3.2 | 9.7 | 0.00 | 0.00 | 0.00 | 80 | 1010.5 |
| 20260506011840 | 29 | 5 | 4.8 | 4.8 | 0.00 | 0.00 | 0.00 | 81 | 1010.7 |
| 20260506011336 | 29 | 19 | 3.2 | 4.8 | 0.00 | 0.00 | 0.00 | 81 | 1010.5 |
| 20260506010834 | 29 | 9 | 3.2 | 6.4 | 0.00 | 0.00 | 0.00 | 81 | 1010.5 |
| 20260506010332 | 29 | 35 | 1.6 | 3.2 | 0.00 | 0.00 | 0.00 | 81 | 1010.5 |
| 20260506005828 | 29 | 352 | 1.6 | 4.8 | 0.00 | 0.00 | 0.00 | 82 | 1010.6 |
| 20260506005325 | 28 | 357 | 0.0 | 1.6 | 0.00 | 0.00 | 0.00 | 82 | 1010.4 |
| 20260506004821 | 28 | 31 | 3.2 | 4.8 | 0.00 | 0.00 | 0.00 | 82 | 1010.3 |
| 20260506004319 | 28 | 1 | 0.0 | 4.8 | 0.00 | 0.00 | 0.00 | 82 | 1010.3 |
| 20260506003815 | 28 | 0 | 1.6 | 4.8 | 0.00 | 0.00 | 0.00 | 83 | 1010.3 |
| 20260506003312 | 28 | 33 | 3.2 | 9.7 | 0.00 | 0.00 | 0.00 | 83 | 1010.3 |
| 20260506002808 | 28 | 57 | 4.8 | 6.4 | 0.00 | 0.00 | 0.00 | 83 | 1010.2 |
| 20260506002306 | 28 | 19 | 1.6 | 9.7 | 0.00 | 0.00 | 0.00 | 83 | 1010.1 |
| 20260506001800 | 28 | 23 | 3.2 | 6.4 | 0.00 | 0.00 | 0.00 | 83 | 1010.0 |
| 20260506001258 | 28 | 21 | 0.0 | 4.8 | 0.00 | 0.00 | 0.00 | 84 | 1010.0 |
| 20260506000754 | 28 | 40 | 3.2 | 6.4 | 0.00 | 0.00 | 0.00 | 84 | 1009.8 |
| 20260506000254 | 28 | 40 | 3.2 | 4.8 | 0.00 | 0.00 | 0.00 | 84 | 1010.0 |
| 20260505235749 | 28 | 47 | 6.4 | 6.4 | 0.00 | 0.00 | 0.00 | 84 | 1009.8 |
| 20260505235246 | 28 | 8 | 1.6 | 3.2 | 0.00 | 0.00 | 0.00 | 84 | 1009.6 |
| 20260505234743 | 28 | 331 | 3.2 | 4.8 | 0.00 | 0.00 | 0.00 | 85 | 1009.6 |
| 20260505234241 | 27 | 32 | 3.2 | 6.4 | 0.00 | 0.00 | 0.00 | 85 | 1009.5 |
| 20260505233737 | 27 | 9 | 3.2 | 4.8 | 0.00 | 0.00 | 0.00 | 85 | 1009.6 |
| 20260505233235 | 27 | 350 | 4.8 | 4.8 | 0.00 | 0.00 | 0.00 | 85 | 1009.5 |
| 20260505232732 | 28 | 17 | 3.2 | 6.4 | 0.00 | 0.00 | 0.00 | 85 | 1009.5 |
| 20260505232229 | 28 | 338 | 3.2 | 6.4 | 0.00 | 0.00 | 0.00 | 86 | 1009.4 |
| 20260505231726 | 27 | 47 | 3.2 | 6.4 | 0.00 | 0.00 | 0.00 | 86 | 1009.2 |
| 20260505231225 | 27 | 57 | 3.2 | 4.8 | 0.00 | 0.00 | 0.00 | 86 | 1009.1 |
| 20260505230723 | 27 | 15 | 3.2 | 3.2 | 0.00 | 0.00 | 0.00 | 86 | 1009.2 |
| 20260505230219 | 27 | 8 | 1.6 | 3.2 | 0.00 | 0.00 | 0.00 | 87 | 1009.1 |
| 20260505225715 | 27 | 92 | 1.6 | 3.2 | 0.00 | 0.00 | 0.00 | 87 | 1009.0 |
| 20260505225212 | 27 | 94 | 3.2 | 4.8 | 0.00 | 0.00 | 0.00 | 87 | 1009.1 |
| 20260505224708 | 27 | 32 | 3.2 | 4.8 | 0.00 | 0.00 | 0.00 | 87 | 1008.9 |
| 20260505224206 | 27 | 66 | 1.6 | 3.2 | 0.00 | 0.00 | 0.00 | 87 | 1009.0 |
| 20260505223703 | 27 | 38 | 3.2 | 3.2 | 0.00 | 0.00 | 0.00 | 88 | 1008.9 |
| 20260505223159 | 27 | 41 | 3.2 | 4.8 | 0.00 | 0.00 | 0.00 | 88 | 1009.0 |
| 20260505222655 | 27 | 42 | 3.2 | 4.8 | 0.00 | 0.00 | 0.00 | 88 | 1008.8 |
| 20260505222151 | 27 | 24 | 3.2 | 4.8 | 0.00 | 0.00 | 0.00 | 88 | 1008.6 |
| 20260505221649 | 27 | 58 | 3.2 | 4.8 | 0.00 | 0.00 | 0.00 | 88 | 1008.7 |
| 20260505221145 | 27 | 28 | 1.6 | 4.8 | 0.00 | 0.00 | 0.00 | 88 | 1008.5 |
| 20260505220643 | 27 | 2 | 0.0 | 1.6 | 0.00 | 0.00 | 0.00 | 88 | 1008.5 |
| 20260505220140 | 27 | 21 | 1.6 | 4.8 | 0.00 | 0.00 | 0.00 | 88 | 1008.6 |
| 20260505215638 | 27 | 31 | 3.2 | 3.2 | 0.00 | 0.00 | 0.00 | 88 | 1008.6 |
| 20260505215136 | 27 | 25 | 1.6 | 4.8 | 0.00 | 0.00 | 0.00 | 88 | 1008.4 |
| 20260505214633 | 27 | 49 | 1.6 | 4.8 | 0.00 | 0.00 | 0.00 | 88 | 1008.5 |
| 20260505214130 | 27 | 19 | 0.0 | 6.4 | 0.00 | 0.00 | 0.00 | 88 | 1008.6 |
| 20260505213628 | 27 | 12 | 3.2 | 6.4 | 0.00 | 0.00 | 0.00 | 88 | 1008.5 |
| 20260505213124 | 27 | 25 | 4.8 | 6.4 | 0.00 | 0.00 | 0.00 | 88 | 1008.4 |
| 20260505212620 | 27 | 56 | 3.2 | 4.8 | 0.00 | 0.00 | 0.00 | 88 | 1008.5 |
| 20260505212118 | 27 | 65 | 3.2 | 4.8 | 0.00 | 0.00 | 0.00 | 88 | 1008.4 |
| 20260505211615 | 27 | 42 | 1.6 | 4.8 | 0.00 | 0.00 | 0.00 | 88 | 1008.3 |
| 20260505211112 | 27 | 331 | 1.6 | 1.6 | 0.00 | 0.00 | 0.00 | 88 | 1008.4 |
| 20260505210609 | 27 | 353 | 3.2 | 3.2 | 0.00 | 0.00 | 0.00 | 88 | 1008.3 |
| 20260505210106 | 27 | 354 | 3.2 | 4.8 | 0.00 | 0.00 | 0.00 | 88 | 1008.5 |
| 20260505205603 | 27 | 1 | 3.2 | 6.4 | 0.00 | 0.00 | 0.00 | 88 | 1008.4 |
| 20260505205101 | 27 | 333 | 3.2 | 4.8 | 0.00 | 0.00 | 0.00 | 88 | 1008.3 |
| 20260505204558 | 27 | 334 | 3.2 | 6.4 | 0.00 | 0.00 | 0.00 | 88 | 1008.4 |
| 20260505204055 | 27 | 341 | 4.8 | 6.4 | 0.00 | 0.00 | 0.00 | 88 | 1008.3 |
| 20260505203551 | 27 | 346 | 6.4 | 9.7 | 0.00 | 0.00 | 0.00 | 88 | 1008.2 |
| 20260505203049 | 27 | 345 | 6.4 | 6.4 | 0.00 | 0.00 | 0.00 | 88 | 1008.1 |
| 20260505202544 | 27 | 357 | 3.2 | 4.8 | 0.00 | 0.00 | 0.00 | 88 | 1008.2 |
| 20260505202040 | 27 | 336 | 4.8 | 6.4 | 0.00 | 0.00 | 0.00 | 88 | 1008.2 |
| 20260505201538 | 27 | 335 | 3.2 | 3.2 | 0.00 | 0.00 | 0.00 | 88 | 1008.0 |
| 20260505201036 | 27 | 327 | 1.6 | 1.6 | 0.00 | 0.00 | 0.00 | 88 | 1008.1 |
| 20260505200533 | 27 | 341 | 1.6 | 1.6 | 0.00 | 0.00 | 0.00 | 88 | 1008.2 |
| 20260505200030 | 27 | 353 | 1.6 | 1.6 | 0.00 | 0.00 | 0.00 | 88 | 1008.0 |
| 20260505195526 | 27 | 8 | 0.0 | 1.6 | 0.00 | 0.00 | 0.00 | 88 | 1008.2 |
| 20260505195023 | 27 | 335 | 0.0 | 1.6 | 0.00 | 0.00 | 0.00 | 88 | 1008.2 |
| 20260505194516 | 27 | 344 | 1.6 | 1.6 | 0.00 | 0.00 | 0.00 | 88 | 1008.2 |
| 20260505194015 | 27 | 332 | 0.0 | 1.6 | 0.00 | 0.00 | 0.00 | 88 | 1008.3 |
| 20260505193513 | 27 | 317 | 3.2 | 3.2 | 0.00 | 0.00 | 0.00 | 88 | 1008.3 |
| 20260505193010 | 27 | 345 | 3.2 | 3.2 | 0.00 | 0.00 | 0.00 | 88 | 1008.3 |
| 20260505192509 | 27 | 333 | 3.2 | 3.2 | 0.00 | 0.00 | 0.00 | 88 | 1008.2 |
| 20260505192006 | 27 | 7 | 0.0 | 1.6 | 0.00 | 0.00 | 0.00 | 88 | 1008.4 |
| 20260505191504 | 27 | 37 | 1.6 | 3.2 | 0.00 | 0.00 | 0.00 | 88 | 1008.2 |
| 20260505191002 | 27 | 12 | 0.0 | 3.2 | 0.00 | 0.00 | 0.00 | 88 | 1008.5 |
| 20260505190456 | 27 | 61 | 3.2 | 4.8 | 0.00 | 0.00 | 0.00 | 88 | 1008.4 |
| 20260505185952 | 27 | 27 | 0.0 | 3.2 | 0.00 | 0.00 | 0.00 | 88 | 1008.3 |
| 20260505185450 | 27 | 1 | 0.0 | 3.2 | 0.00 | 0.00 | 0.00 | 88 | 1008.5 |
| 20260505184945 | 27 | 15 | 1.6 | 3.2 | 0.00 | 0.00 | 0.00 | 88 | 1008.6 |
| 20260505184442 | 27 | 347 | 4.8 | 4.8 | 0.00 | 0.00 | 0.00 | 88 | 1008.8 |
| 20260505183939 | 27 | 340 | 1.6 | 3.2 | 0.00 | 0.00 | 0.00 | 88 | 1008.8 |
| 20260505183436 | 26 | 348 | 3.2 | 4.8 | 0.00 | 0.00 | 0.00 | 88 | 1008.6 |
| 20260505182933 | 27 | 346 | 4.8 | 6.4 | 0.00 | 0.00 | 0.00 | 88 | 1008.9 |
| 20260505182430 | 26 | 336 | 4.8 | 6.4 | 0.00 | 0.00 | 0.00 | 88 | 1008.7 |
| 20260505181926 | 26 | 6 | 3.2 | 4.8 | 0.00 | 0.00 | 0.00 | 88 | 1008.7 |
| 20260505181424 | 26 | 348 | 3.2 | 6.4 | 0.00 | 0.00 | 0.00 | 88 | 1008.9 |
| 20260505180920 | 26 | 354 | 8.0 | 11.3 | 0.00 | 0.00 | 0.00 | 88 | 1008.9 |
| 20260505180416 | 26 | 343 | 6.4 | 6.4 | 0.00 | 0.00 | 0.00 | 88 | 1009.0 |
| 20260505175913 | 26 | 342 | 4.8 | 4.8 | 0.00 | 0.00 | 0.00 | 88 | 1008.9 |
| 20260505175409 | 26 | 326 | 4.8 | 6.4 | 0.00 | 0.00 | 0.00 | 88 | 1008.9 |
| 20260505174906 | 26 | 333 | 3.2 | 3.2 | 0.00 | 0.00 | 0.00 | 88 | 1009.0 |
| 20260505174404 | 27 | 343 | 3.2 | 6.4 | 0.00 | 0.00 | 0.00 | 88 | 1009.1 |
| 20260505173859 | 27 | 339 | 3.2 | 4.8 | 0.00 | 0.00 | 0.00 | 88 | 1009.3 |
| 20260505173356 | 27 | 297 | 6.4 | 6.4 | 0.00 | 0.00 | 0.00 | 87 | 1009.4 |
| 20260505172853 | 27 | 295 | 6.4 | 6.4 | 0.00 | 0.00 | 0.00 | 87 | 1009.2 |
| 20260505172351 | 27 | 334 | 4.8 | 6.4 | 0.00 | 0.00 | 0.00 | 87 | 1009.3 |
| 20260505171850 | 27 | 337 | 3.2 | 4.8 | 0.00 | 0.00 | 0.00 | 86 | 1009.3 |
| 20260505171347 | 27 | 315 | 3.2 | 4.8 | 0.00 | 0.00 | 0.00 | 86 | 1009.3 |
| 20260505170844 | 28 | 293 | 4.8 | 6.4 | 0.00 | 0.00 | 0.00 | 85 | 1009.4 |
| 20260505170341 | 28 | 2 | 0.0 | 0.0 | 0.00 | 0.00 | 0.00 | 85 | 1009.5 |
| 20260505165836 | 28 | 54 | 3.2 | 3.2 | 0.00 | 0.71 | 0.71 | 85 | 1009.5 |
| 20260505165332 | 28 | 33 | 1.6 | 3.2 | 0.00 | 0.71 | 0.71 | 85 | 1009.7 |
| 20260505164828 | 28 | 42 | 1.6 | 3.2 | 0.00 | 0.71 | 0.71 | 85 | 1009.7 |
| 20260505164325 | 28 | 49 | 1.6 | 1.6 | 0.00 | 0.71 | 0.71 | 85 | 1009.7 |
| 20260505163823 | 28 | 48 | 1.6 | 3.2 | 0.00 | 0.71 | 0.71 | 85 | 1009.7 |
| 20260505163321 | 28 | 29 | 0.0 | 3.2 | 0.00 | 0.71 | 0.71 | 85 | 1009.9 |
| 20260505162814 | 28 | 34 | 1.6 | 3.2 | 0.00 | 0.71 | 0.71 | 85 | 1010.0 |
| 20260505162310 | 27 | 93 | 3.2 | 4.8 | 0.00 | 0.71 | 0.71 | 86 | 1009.9 |
| 20260505161808 | 27 | 15 | 0.0 | 3.2 | 0.00 | 0.71 | 0.71 | 86 | 1009.9 |
| 20260505161305 | 27 | 70 | 1.6 | 3.2 | 0.00 | 0.71 | 0.71 | 87 | 1009.7 |
| 20260505160802 | 27 | 355 | 0.0 | 1.6 | 0.00 | 0.71 | 0.71 | 87 | 1009.6 |
| 20260505160300 | 27 | 338 | 1.6 | 1.6 | 0.00 | 0.71 | 0.71 | 87 | 1009.7 |
| 20260505153238 | 27 | 335 | 1.6 | 1.6 | 0.00 | 0.71 | 0.71 | 87 | 1009.7 |
| 20260505152735 | 27 | 353 | 1.6 | 3.2 | 0.00 | 0.71 | 0.71 | 87 | 1009.7 |
| 20260505152231 | 27 | 0 | 0.0 | 0.0 | 0.00 | 0.71 | 0.71 | 87 | 1009.6 |
| 20260505151726 | 27 | 15 | 0.0 | 1.6 | 0.00 | 0.71 | 0.71 | 87 | 1009.8 |
| 20260505151224 | 27 | 7 | 0.0 | 1.6 | 0.00 | 0.71 | 0.71 | 88 | 1009.9 |
| 20260505150720 | 27 | 9 | 0.0 | 1.6 | 0.00 | 0.71 | 0.71 | 88 | 1009.8 |
| 20260505150217 | 27 | 11 | 0.0 | 1.6 | 0.00 | 0.71 | 0.71 | 88 | 1009.9 |
| 20260505140645 | 27 | 11 | 0.0 | 1.6 | 0.00 | 0.71 | 0.71 | 88 | 1010.0 |
| 20260505140142 | 27 | 11 | 0.0 | 1.6 | 0.00 | 0.71 | 0.71 | 88 | 1010.0 |
| 20260505130106 | 25 | 283 | 3.2 | 3.2 | 0.00 | 0.71 | 0.71 | 90 | 1009.8 |
| 20260505124555 | 25 | 304 | 1.6 | 9.7 | 0.00 | 0.71 | 0.71 | 90 | 1009.7 |
| 20260505124052 | 25 | 304 | 1.6 | 9.7 | 0.00 | 0.71 | 0.71 | 90 | 1009.7 |
| 20260505123548 | 25 | 282 | 4.8 | 9.7 | 0.00 | 0.71 | 0.71 | 90 | 1009.7 |
| 20260505123045 | 25 | 275 | 4.8 | 6.4 | 0.00 | 0.71 | 0.71 | 91 | 1009.5 |
| 20260505122542 | 25 | 321 | 3.2 | 9.7 | 0.00 | 0.71 | 0.71 | 91 | 1009.8 |
| 20260505122038 | 25 | 331 | 6.4 | 6.4 | 0.00 | 0.71 | 0.71 | 91 | 1009.7 |
| 20260505121534 | 25 | 274 | 11.3 | 20.9 | 0.00 | 0.71 | 0.71 | 91 | 1009.6 |
| 20260505121031 | 25 | 289 | 6.4 | 12.9 | 0.18 | 0.71 | 0.71 | 91 | 1009.6 |
| 20260505120529 | 25 | 321 | 12.9 | 16.1 | 0.18 | 0.71 | 0.71 | 91 | 1009.3 |
| 20260505120024 | 25 | 324 | 14.5 | 20.9 | 0.00 | 0.69 | 0.69 | 91 | 1009.1 |
| 20260505115519 | 25 | 333 | 19.3 | 24.1 | 0.00 | 0.69 | 0.69 | 91 | 1009.1 |
| 20260505115017 | 25 | 307 | 12.9 | 22.5 | 0.00 | 0.69 | 0.69 | 91 | 1009.5 |
| 20260505114513 | 26 | 344 | 22.5 | 33.8 | 0.00 | 0.69 | 0.69 | 91 | 1009.3 |
| 20260505114010 | 26 | 326 | 17.7 | 22.5 | 0.00 | 0.69 | 0.69 | 91 | 1009.1 |
| 20260505113506 | 26 | 8 | 3.2 | 9.7 | 1.19 | 0.69 | 0.69 | 91 | 1008.8 |
| 20260505113003 | 25 | 359 | 12.9 | 22.5 | 1.32 | 0.69 | 0.69 | 91 | 1009.0 |
| 20260505112459 | 26 | 16 | 9.7 | 12.9 | 0.00 | 0.46 | 0.46 | 91 | 1008.9 |
| 20260505111956 | 26 | 335 | 3.2 | 9.7 | 0.00 | 0.46 | 0.46 | 91 | 1008.0 |
| 20260505111455 | 26 | 317 | 6.4 | 12.9 | 0.18 | 0.46 | 0.46 | 90 | 1007.9 |
| 20260505110952 | 26 | 287 | 11.3 | 14.5 | 1.98 | 0.46 | 0.46 | 90 | 1008.2 |
| 20260505110449 | 26 | 17 | 16.1 | 20.9 | 2.11 | 0.41 | 0.41 | 89 | 1008.2 |
| 20260505101920 | 31 | 163 | 12.9 | 35.4 | 0.00 | 0.00 | 0.00 | 74 | 1006.8 |
| 20260505101415 | 31 | 156 | 17.7 | 22.5 | 0.00 | 0.00 | 0.00 | 72 | 1006.9 |
| 20260505100911 | 31 | 162 | 12.9 | 20.9 | 0.00 | 0.00 | 0.00 | 73 | 1006.7 |
| 20260505100408 | 31 | 119 | 22.5 | 25.7 | 0.00 | 0.00 | 0.00 | 73 | 1006.6 |
| 20260505095903 | 31 | 129 | 22.5 | 29.0 | 0.00 | 0.00 | 0.00 | 72 | 1006.7 |
| 20260505095401 | 31 | 155 | 12.9 | 22.5 | 0.00 | 0.00 | 0.00 | 72 | 1006.7 |
| 20260505094857 | 32 | 155 | 27.4 | 33.8 | 0.00 | 0.00 | 0.00 | 71 | 1006.3 |
| 20260505094354 | 32 | 137 | 9.7 | 20.9 | 0.00 | 0.00 | 0.00 | 70 | 1006.5 |
| 20260505093850 | 32 | 157 | 9.7 | 20.9 | 0.00 | 0.00 | 0.00 | 70 | 1006.3 |
| 20260505093347 | 32 | 128 | 27.4 | 30.6 | 0.00 | 0.00 | 0.00 | 69 | 1006.1 |
| 20260505092844 | 32 | 175 | 17.7 | 25.7 | 0.00 | 0.00 | 0.00 | 69 | 1006.2 |
| 20260505092343 | 32 | 152 | 17.7 | 24.1 | 0.00 | 0.00 | 0.00 | 68 | 1006.1 |